Tracking 29747 objects as of 10-Oct-2024
HD Live streaming from Space Station
objects crossing your sky now

DELTA 1 DEB

Track DELTA 1 DEB now!
10-day predictions


NORAD ID: 21933
Int'l Code: 1975-052JT
Perigee: 1,057.7 km
Apogee: 1,301.6 km
Inclination: 99.3 °
Period: 108.8 minutes
Semi major axis: 7550 km
RCS: 0.0315 m2 (small)
Launch date: June 12, 1975
Source: United States (US)
Launch site: AIR FORCE WESTERN TEST RANGE (AFWTR)

Note: This is SATELLITE DEBRIS
Your satellite tracking list
Your tracking list is empty




NASA's NSSDC Master Catalog

Two Line Element Set (TLE):
1 21933U 75052JT  24280.29686972  .00000634  00000-0  14880-2 0  9998
2 21933  99.3449  33.0146 0161503 349.6732  35.0137 13.23214133590450
Source of the keplerian elements: AFSPC